Location: Kaltbrunn
(47.7335°N, 9.0731°E)
Time: 10:14:58
(UTC+00:00)

Daily predictions for brighter satellites

Satellite Brightness Start Highest point End
(mag) Time Altitude Azimuth Time Altitude Azimuth Time Altitude Azimuth
BREEZE-M DEB (TANK) 3.5 19:27:11 10° SSW 19:30:24 45° SE 19:39:59 10° ENE
Cosmos 1680 Rocket 4.5 19:30:13 10° SSE 19:34:33 27° E 19:38:54 10° NE
Cosmos 1076 Rocket 3.5 19:31:48 10° S 19:36:08 80° E 19:40:32 10° NNE
Cosmos 1689 Rocket 3.5 19:34:20 10° N 19:36:57 39° WNW 19:39:31 10° SW
Resurs 01 Rocket 1.8 19:32:42 10° SSE 19:37:03 58° ENE 19:41:27 10° N
SL-16 R/B 2.5 19:34:58 10° NNW 19:40:36 58° ENE 19:46:11 10° SE
Cosmos 1151 Rocket 4.3 19:37:24 10° NNE 19:41:06 26° ENE 19:44:48 10° SE
ATLAS 5 CENTAUR R/B 4.1 19:40:16 10° NNW 19:44:00 20° NNE 19:48:10 10° ENE
Terra 3.7 19:41:16 10° E 19:44:04 16° ENE 19:46:54 10° NNE
RESURS DK-1 4.0 19:41:16 10° SW 19:45:13 41° NW 19:49:11 10° NNE
Meteor 2-3 Rocket 4.0 19:41:32 10° SSE 19:46:59 51° E 19:52:32 10° NNE
Cosmos 332 Rocket 3.9 19:42:22 10° NNW 19:47:18 89° ENE 19:52:13 10° SSE
SPOT 3 Rocket 3.7 19:42:41 10° SSE 19:47:50 62° ENE 19:52:59 10° N
Cosmos 1933 3.4 19:48:21 10° N 19:52:23 65° ENE 19:56:23 10° SSE
Cosmos 1271 Rocket 3.0 19:49:42 10° N 19:53:39 58° ENE 19:57:36 10° SSE
Gbstr 26 Del rocket 2.9 19:51:04 10° WNW 19:54:44 61° SSW 19:58:12 13° SE
Cosmos 1538 Rocket 4.3 19:50:59 10° SSW 19:56:11 75° WNW 20:01:22 10° NNE
OBJECT-B 3.6 19:55:02 10° SW 19:57:17 18° W 19:59:34 10° NW
SPOT 5 3.9 19:57:34 11° ESE 20:00:52 26° ENE 20:04:33 10° N
IGS 5A 3.6 19:57:08 10° S 20:01:16 79° WSW 20:05:26 10° NNW
Cosmos 2098 Rocket 3.4 19:58:15 10° SSW 20:01:28 54° WNW 20:05:25 10° N
ARIANE 5 R/B 3.6 19:58:58 12° SE 20:02:31 32° ENE 20:06:27 10° N
Meteor 2-19 Rocket 4.4 19:56:49 10° S 20:02:51 78° E 20:08:56 10° NNE
Cosmos 2195 Rocket 4.5 19:59:18 10° S 20:05:21 67° E 20:11:25 10° NNE
Ariane Rocket 3.8 20:02:02 10° S 20:06:58 52° W 20:11:56 10° NNW
Cosmos 1782 3.0 20:04:21 10° N 20:08:20 58° ENE 20:11:44 13° SSE
Landsat 7 3.9 20:03:40 10° S 20:08:25 79° WSW 20:13:13 10° NNW
Cosmos 1624 Rocket 4.4 20:06:59 10° NNW 20:12:03 48° ENE 20:16:05 16° SE
Cosmos 304 Rocket 4.3 20:08:06 10° NNW 20:12:49 58° WSW 20:17:29 10° S
Cosmos 2082 Rocket 3.8 20:07:53 10° WSW 20:13:08 38° NW 20:18:26 10° NNE
Cosmos 220 Rocket 4.2 20:10:59 10° NNW 20:15:18 61° ENE 20:18:36 17° SE
ATLAS 3B R/B 3.9 20:13:02 10° NW 20:19:30 38° WSW 20:26:10 10° S
Cosmos 2360 Rocket 2.5 20:14:08 10° NNW 20:19:40 54° ENE 20:23:55 17° SE
ATLAS 2AS CENTAUR R/B 4.4 20:14:56 10° WSW 20:22:20 42° NW 20:29:30 10° NE
MetOp-B 4.3 20:18:54 10° S 20:24:15 78° WSW 20:29:39 10° NNW
Cosmos 1174 4.4 20:22:10 10° NNW 20:24:53 29° NE 20:26:29 18° E
Cosmos 1092 Rocket 4.1 20:20:21 10° S 20:26:38 83° W 20:33:01 10° N
ISS -1.2 20:28:57 10° WSW 20:30:23 12° SW 20:31:49 10° SSW
Cosmos 2151 4.1 20:27:29 10° SSW 20:31:34 45° WNW 20:35:42 10° N
NOSS 2-1 (C) 3.0 20:28:30 10° SSW 20:31:43 47° SE 20:34:56 10° NE
ERS-2 3.8 20:30:35 10° N 20:33:56 35° WNW 20:37:17 10° SW
Cosmos 2026 Rocket 4.1 20:29:17 10° S 20:35:38 87° W 20:41:56 10° N
Cosmos 2084 3.2 20:33:13 10° SSW 20:37:16 73° SE 20:41:26 10° NE
COSMOS 2455 3.8 20:34:51 19° SSE 20:37:46 27° ESE 20:42:43 10° NE
Cosmos 1812 2.8 20:34:34 10° N 20:38:25 63° ENE 20:40:31 25° SSE
NOSS 2-1 (D) 2.8 20:36:11 10° SSW 20:39:27 59° SE 20:42:45 10° NE
GP-B 3.1 20:35:38 10° N 20:40:06 84° W 20:44:00 13° S
Cosmos 2333 Rocket 3.0 20:35:22 10° NNW 20:40:44 41° NE 20:44:24 19° ESE
Cosmos 923 Rocket 4.4 20:37:01 10° SSW 20:42:20 68° WNW 20:47:41 10° NNE
BREEZE-M DEB (TANK) 4.5 20:39:23 10° W 20:43:03 45° SSW 20:49:45 19° SE
SPOT 1/Viking Rocket 4.0 20:38:27 12° S 20:43:15 60° W 20:48:27 10° NNW
ERS-1 Rocket 3.0 20:40:25 21° SSE 20:43:44 67° ENE 20:48:44 10° N
USA 245 3.9 20:42:07 15° S 20:46:00 63° WSW 20:49:51 10° NNW
SL-27 R/B 2.6 20:44:42 23° S 20:46:43 55° ESE 20:50:15 10° NNE
Cosmos 2322 4.4 20:42:29 10° NNW 20:47:58 44° NE 20:51:30 21° ESE
Okean 3 Rocket 3.7 20:48:05 12° S 20:52:17 82° W 20:56:51 10° N
USA 276 4.1 20:50:38 10° W 20:52:41 16° SW 20:53:10 16° SSW
Cosmos 2056 Rocket 3.5 20:47:36 10° NNW 20:52:59 82° WSW 20:56:17 24° SSE
Cosmos 2237 Rocket 4.2 20:49:09 10° N 20:53:01 18° NE 20:56:53 10° E
Cosmos 1408 Rocket 3.7 20:50:54 25° SSE 20:53:10 54° E 20:57:24 10° NNE
Cosmos 2322 Rocket 2.7 20:48:29 10° NW 20:53:58 55° WSW 20:57:55 19° S
Meteor 2-14 Rocket 4.4 20:48:52 13° S 20:54:23 76° E 21:00:32 10° NNE
Cosmos 1743 Rocket 4.4 20:55:45 27° SE 20:57:04 33° E 21:01:04 10° NNE
CARTOSAT-1 4.0 20:59:31 20° S 21:02:20 56° W 21:06:36 10° NNW
Meteor 1-10 Rocket 4.1 20:58:33 10° N 21:04:08 78° ENE 21:07:16 27° SSE
USA 234 4.3 20:58:13 10° E 21:04:21 44° NNE 21:10:28 10° WNW
Spot 2 Rocket 4.0 21:03:04 19° S 21:06:43 56° W 21:11:46 10° NNW
Cosmos 2219 Rocket 2.5 21:06:07 10° NNW 21:11:38 55° ENE 21:14:26 28° ESE
Resurs 01 Rocket 4.1 21:11:03 10° SW 21:13:55 17° W 21:16:49 10° NW
BREEZE M DEB (TANK) 4.2 21:11:38 10° SW 21:15:51 61° SSE 21:43:21 10° E
Cosmos 1680 Rocket 4.5 21:11:19 10° SW 21:16:24 48° WNW 21:21:30 10° NNE
Cosmos 1151 Rocket 4.5 21:14:46 10° NNW 21:18:42 33° W 21:21:48 15° SSW
Cosmos 1515 Rocket 3.6 21:14:17 10° NNW 21:18:43 77° W 21:20:36 34° S
Terra 1.8 21:19:00 32° S 21:21:13 79° WSW 21:26:01 10° NNW
Cosmos 1553 Rocket 4.4 21:16:07 10° NNW 21:22:04 58° W 21:26:23 19° SSW
Cosmos 2285 Rocket 4.2 21:16:56 10° NNW 21:23:11 61° ENE 21:26:17 30° SE
Cosmos 2266 Rocket 3.9 21:19:57 27° S 21:23:29 71° E 21:29:44 10° NNE
SL-16 R/B 3.9 21:19:45 10° NW 21:24:18 25° WSW 21:28:20 12° SSW
Cosmos 2315 Rocket 4.2 21:21:43 10° N 21:28:00 62° ENE 21:30:56 33° SSE
ATLAS 5 CENTAUR R/B 2.7 21:24:19 10° NW 21:29:39 57° NE 21:33:06 26° ESE
Cosmos 2333 4.2 21:25:16 10° NNW 21:30:54 80° WSW 21:33:17 36° SSE
Cosmos 2228 Rocket 3.1 21:29:47 10° N 21:34:12 64° E 21:35:17 47° SE
NOSS 2-1 (E) 4.2 21:34:37 10° WSW 21:37:44 40° NW 21:41:05 10° NNE
SPOT 5 3.8 21:36:48 23° SSW 21:38:49 36° W 21:42:56 10° NNW
ARIANE 5 R/B 4.1 21:36:32 19° SW 21:38:57 30° W 21:42:53 10° NNW
COSMOS 2428 2.7 21:33:32 10° NNW 21:39:16 73° ENE 21:41:31 38° SE
Cosmos 883 Rocket 4.5 21:36:36 10° N 21:42:52 89° W 21:45:47 35° S
NOSS 3-1 (C) 4.2 21:37:32 10° NW 21:44:59 70° SW 21:49:24 32° SSE
Cosmos 1707 Rocket 4.3 21:41:10 10° N 21:45:16 38° ENE 21:45:57 36° E
IRIDIUM 106 4.3 21:41:33 10° N 21:46:48 78° E 21:48:29 44° SSE
Cosmos 1048 Rocket 3.9 21:48:39 45° SSE 21:50:00 63° ESE 21:55:04 10° NNE
Cosmos 1655 Rocket 4.4 21:54:13 20° SSW 21:58:39 61° WNW 22:05:00 10° N
ALOS 2 3.7 21:59:22 29° E 22:00:11 31° ENE 22:04:05 10° N
COSMOS 2487 2.6 22:00:10 64° WNW 22:00:12 64° WNW 22:03:35 10° NNE
USA 229 DEB 3.9 21:53:37 10° NW 22:00:57 82° SW 22:04:27 36° SSE
USA 229 3.9 21:53:43 10° NW 22:01:03 83° SW 22:04:33 36° SSE
Cosmos 972 Rocket 4.0 21:59:17 34° SSW 22:01:36 81° WNW 22:06:36 10° NNE
Cosmos 1805 Rocket 3.5 22:02:11 59° S 22:03:00 89° WSW 22:07:28 10° N
Cosmos 2360 Rocket 3.6 21:58:40 10° NW 22:03:20 27° WSW 22:05:41 20° SW
Cosmos 2084 Rocket 3.8 22:04:21 10° NW 22:08:29 56° NE 22:09:18 47° E
CZ-4C R/B 4.3 22:04:22 10° NNW 22:10:14 31° NNE 22:17:03 10° E
USA 267 3.3 22:05:54 10° ENE 22:12:18 53° SE 22:14:48 35° SSW
Cosmos 1980 4.0 22:10:02 10° NNW 22:15:38 57° ENE 22:17:31 39° ESE
NOSS 0 Rocket 3.9 22:10:32 10° NNW 22:16:49 82° ENE 22:18:54 45° SE
NOSS 3-1 (A) 4.1 22:14:00 10° NW 22:21:28 68° SW 22:25:00 38° SSE
COSMOS 2455 3.2 22:17:53 13° SW 22:23:17 63° NW 22:29:17 10° NNE
Lacrosse 5 2.6 22:25:50 36° E 22:25:50 36° E 22:29:25 10° ENE
Meteor 1-20 Rocket 4.2 22:23:03 45° SSW 22:24:53 81° WNW 22:30:39 10° N
Cosmos 2333 Rocket 3.1 22:19:48 10° NW 22:24:56 37° WSW 22:26:23 32° SW
Cosmos 1452 Rocket 4.3 22:20:11 10° NW 22:25:04 40° WSW 22:26:16 35° SW
Nadezhda 2 Rocket 4.5 22:23:24 44° S 22:25:37 85° E 22:32:05 10° N
COBE Rocket 3.8 22:26:51 59° SSW 22:27:31 68° W 22:32:14 10° NNW
Cosmos 972 4.5 22:28:20 49° SSW 22:29:51 88° WNW 22:35:00 10° NNE
BREEZE-M R/B 2.9 22:27:36 10° WSW 22:31:56 52° E 22:35:43 10° ENE
Cosmos 2297 Rocket 2.7 22:32:07 41° ESE 22:32:24 42° ESE 22:37:41 10° NE
Cosmos 1500 3.5 22:34:31 60° NE 22:34:31 60° NE 22:37:51 10° NNE
Sich 1 3.5 22:34:10 48° WSW 22:34:51 54° WNW 22:39:07 10° N
Cosmos 1244 Rocket 4.4 22:34:47 46° SSW 22:36:47 87° W 22:43:02 10° N
Cosmos 2237 Rocket 2.2 22:32:21 10° NNW 22:38:04 77° ENE 22:39:29 52° SE
Cosmos 1470 Rocket 3.9 22:43:08 50° E 22:43:08 50° E 22:47:04 10° NNE
Cosmos 1633 Rocket 2.9 22:44:04 88° SSW 22:44:07 89° W 22:48:30 10° N
BREEZE-M DEB (TANK) 4.3 22:41:07 10° W 22:42:19 16° W 22:42:19 16° W
Cosmos 2227 Rocket 2.8 22:44:30 39° ESE 22:44:40 39° ESE 22:49:54 10° NE
USA 234 3.3 22:42:59 26° ESE 22:46:56 79° NNE 22:53:30 10° NW
Cosmos 1110 Rocket 4.4 22:42:18 10° NNW 22:47:26 49° WSW 22:48:10 45° SW
Cosmos 1933 Rocket 4.4 22:49:28 39° E 22:49:28 39° E 22:53:25 10° NNE
Cosmos 1331 Rocket 4.3 22:44:51 10° NNW 22:49:55 50° WSW 22:50:32 48° SW
APEX 4.4 22:48:05 43° SW 22:50:12 82° WNW 22:56:58 10° NNE
Cosmos 1666 Rocket 3.7 22:50:45 61° WSW 22:51:06 63° WNW 22:55:33 10° N
Cosmos 2242 Rocket 4.4 22:49:21 10° N 22:53:31 39° ENE 22:53:45 38° E
Cosmos 1340 Rocket 3.9 22:54:24 35° ENE 22:54:24 35° ENE 22:57:19 10° NNE
Cosmos 2219 Rocket 3.5 22:50:41 10° NW 22:55:13 26° WSW 22:56:08 25° WSW
Cosmos 1378 4.4 22:52:54 10° N 22:55:52 34° ENE 22:55:52 34° ENE
NOSS 2-2 (E) 4.4 22:53:26 10° NW 22:58:51 79° SW 23:00:50 49° SSE
SL-16 R/B 2.8 23:02:03 10° NNW 23:07:36 50° ENE 23:09:38 35° ESE
Cosmos 1862 Rocket 4.1 23:10:03 10° NNW 23:14:06 46° W 23:14:06 46° W
ATLAS 5 CENTAUR R/B 3.1 23:09:05 10° NW 23:14:15 35° WSW 23:14:35 35° SW
STPSAT 2 (USA 217) 4.5 23:10:11 10° NNW 23:14:45 89° NNW 23:14:45 89° NNW
Okean 3 4.4 23:11:53 10° N 23:15:53 37° ENE 23:16:01 37° E
COSMOS 2428 4.3 23:18:56 10° NW 23:22:54 20° W 23:23:31 19° WSW
NOSS 2-2 (C) 4.4 23:18:29 10° NW 23:23:49 67° SW 23:25:11 53° S
Meteor 2-4 Rocket 4.0 23:18:04 10° NNW 23:23:53 58° W 23:24:59 50° SW
Intercosmos 25 Rocket 4.1 23:24:02 50° E 23:24:08 50° E 23:29:42 10° NNE
Cosmos 1743 4.4 23:25:44 24° ENE 23:25:44 24° ENE 23:28:17 10° NNE
Cosmos 1666 3.3 23:26:25 51° NW 23:26:25 51° NW 23:29:45 10° N
Meteor 1-11 Rocket 3.8 23:25:58 52° SE 23:26:43 57° E 23:32:08 10° NNE
Cosmos 1703 Rocket 3.5 23:25:24 10° N 23:29:38 83° N 23:29:38 83° N
Cosmos 1709 Rocket 4.0 23:30:39 54° SSE 23:32:12 78° E 23:38:36 10° NNE
PSLV R/B 3.8 23:29:16 10° NNE 23:34:01 63° E 23:34:07 63° ESE
Cosmos 1992 Rocket 3.8 23:30:49 10° NNW 23:36:05 89° WSW 23:36:41 71° SSE
ALOS 2 3.9 23:36:46 30° W 23:36:46 30° W 23:40:24 10° NNW
Meteor 1-5 Rocket 4.5 23:35:45 49° SW 23:37:08 64° WNW 23:43:01 10° N
Cosmos 909 Rocket 4.2 23:36:15 49° SSW 23:38:15 79° ESE 23:46:06 10° NE
Cosmos 1745 Rocket 4.3 23:39:17 42° SW 23:41:08 58° WNW 23:47:22 10° N
Cosmos 2219 3.3 23:42:23 50° SW 23:43:50 73° WNW 23:49:37 10° NNE
CZ-2D R/B 4.1 23:40:32 10° NE 23:43:55 17° E 23:45:32 15° ESE
Cosmos 1066 Rocket 4.2 23:41:36 10° NNW 23:47:32 87° W 23:48:43 59° S
Meteor 1-13 Rocket 4.2 23:45:47 10° NNW 23:51:31 70° W 23:52:26 59° SSW
Timation 1 Rocket 4.3 23:51:21 54° SW 23:52:49 85° WNW 23:58:51 10° NNE
